| time (UTC) | temp C | wind direction | speed KPH | gust KPH | rain 1hr cm | rain 24hr cm | rain mn cm | humidity % | barometer mb |
| 20260507024604 | 9 | 222 | 6.4 | 0.0 | 0.00 | 0.00 | 0.00 | 75 | 1009.5 |
| 20260507023057 | 9 | 229 | 6.4 | 0.0 | 0.00 | 0.00 | 0.00 | 74 | 1009.4 |
| 20260507021607 | 9 | 219 | 6.4 | 0.0 | 0.00 | 0.00 | 0.00 | 73 | 1009.4 |
| 20260507020056 | 9 | 246 | 4.8 | 0.0 | 0.00 | 0.00 | 0.00 | 73 | 1009.4 |
| 20260507014556 | 10 | 193 | 6.4 | 0.0 | 0.00 | 0.00 | 0.00 | 72 | 1009.4 |
| 20260507013114 | 10 | 219 | 6.4 | 0.0 | 0.00 | 0.00 | 0.00 | 71 | 1009.5 |
| 20260507011554 | 10 | 218 | 6.4 | 0.0 | 0.00 | 0.00 | 0.00 | 70 | 1009.5 |
| 20260507010055 | 10 | 213 | 9.7 | 0.0 | 0.00 | 0.00 | 0.00 | 70 | 1009.5 |
| 20260507004554 | 10 | 197 | 8.0 | 0.0 | 0.00 | 0.00 | 0.00 | 69 | 1009.4 |
| 20260507003053 | 10 | 221 | 8.0 | 0.0 | 0.00 | 0.00 | 0.00 | 69 | 1009.3 |
| 20260507001609 | 10 | 233 | 8.0 | 0.0 | 0.00 | 0.00 | 0.00 | 69 | 1009.2 |
| 20260507000052 | 10 | 215 | 9.7 | 0.0 | 0.00 | 0.00 | 0.00 | 68 | 1009.0 |
| 20260506234559 | 10 | 228 | 9.7 | 0.0 | 0.00 | 0.00 | 0.00 | 67 | 1008.9 |
| 20260506233053 | 11 | 190 | 9.7 | 0.0 | 0.00 | 0.00 | 0.00 | 66 | 1008.8 |
| 20260506231553 | 11 | 184 | 11.3 | 0.0 | 0.00 | 0.00 | 0.00 | 65 | 1008.6 |
| 20260506230050 | 11 | 192 | 9.7 | 0.0 | 0.00 | 0.00 | 0.00 | 64 | 1008.6 |
| 20260506224605 | 11 | 213 | 12.9 | 0.0 | 0.00 | 0.00 | 0.00 | 64 | 1008.6 |
| 20260506223054 | 11 | 189 | 11.3 | 0.0 | 0.00 | 0.00 | 0.00 | 63 | 1008.7 |
| 20260506221549 | 11 | 252 | 9.7 | 0.0 | 0.00 | 0.00 | 0.00 | 62 | 1008.6 |
| 20260506214549 | 12 | 190 | 9.7 | 0.0 | 0.00 | 0.00 | 0.00 | 58 | 1008.5 |
| 20260506213048 | 12 | 180 | 8.0 | 0.0 | 0.00 | 0.00 | 0.00 | 57 | 1008.5 |
| 20260506211553 | 12 | 192 | 14.5 | 0.0 | 0.00 | 0.00 | 0.00 | 57 | 1008.5 |
| 20260506210047 | 12 | 205 | 14.5 | 0.0 | 0.00 | 0.00 | 0.00 | 57 | 1008.5 |
| 20260506204546 | 13 | 213 | 9.7 | 0.0 | 0.00 | 0.00 | 0.00 | 55 | 1008.4 |
| 20260506203047 | 13 | 139 | 9.7 | 0.0 | 0.00 | 0.00 | 0.00 | 55 | 1008.2 |
| 20260506201543 | 13 | 190 | 11.3 | 0.0 | 0.00 | 0.00 | 0.00 | 56 | 1008.4 |
| 20260506200041 | 13 | 212 | 9.7 | 0.0 | 0.00 | 0.00 | 0.00 | 55 | 1008.6 |
| 20260506194545 | 13 | 193 | 11.3 | 0.0 | 0.00 | 0.00 | 0.00 | 56 | 1008.7 |
| 20260506193043 | 12 | 208 | 9.7 | 0.0 | 0.00 | 0.00 | 0.00 | 57 | 1008.9 |
| 20260506191535 | 12 | 224 | 8.0 | 0.0 | 0.00 | 0.00 | 0.00 | 59 | 1009.0 |
| 20260506190031 | 12 | 278 | 8.0 | 0.0 | 0.00 | 0.00 | 0.00 | 59 | 1009.0 |
| 20260506184531 | 11 | 147 | 8.0 | 0.0 | 0.00 | 0.00 | 0.00 | 61 | 1009.0 |
| 20260506183029 | 11 | 272 | 8.0 | 0.0 | 0.00 | 0.00 | 0.00 | 63 | 1009.1 |
| 20260506181525 | 10 | 170 | 11.3 | 0.0 | 0.00 | 0.00 | 0.00 | 64 | 1009.3 |
| 20260506180024 | 10 | 219 | 11.3 | 0.0 | 0.00 | 0.00 | 0.00 | 67 | 1009.4 |
| 20260506174524 | 10 | 217 | 11.3 | 0.0 | 0.00 | 0.00 | 0.00 | 68 | 1009.4 |
| 20260506173023 | 10 | 204 | 9.7 | 0.0 | 0.00 | 0.00 | 0.00 | 70 | 1009.6 |
| 20260506171525 | 9 | 194 | 8.0 | 0.0 | 0.00 | 0.00 | 0.00 | 70 | 1009.6 |
| 20260506170019 | 9 | 198 | 8.0 | 0.0 | 0.00 | 0.00 | 0.00 | 71 | 1009.5 |
| 20260506164520 | 9 | 206 | 9.7 | 0.0 | 0.00 | 0.00 | 0.00 | 70 | 1009.7 |
| 20260506163018 | 10 | 189 | 6.4 | 0.0 | 0.00 | 0.00 | 0.00 | 69 | 1009.8 |
| 20260506161518 | 10 | 159 | 8.0 | 0.0 | 0.00 | 0.00 | 0.00 | 68 | 1009.7 |
| 20260506160028 | 10 | 235 | 6.4 | 0.0 | 0.00 | 0.00 | 0.00 | 67 | 1009.7 |
| 20260506154518 | 10 | 191 | 8.0 | 0.0 | 0.00 | 0.00 | 0.00 | 70 | 1009.8 |
| 20260506153016 | 10 | 193 | 6.4 | 0.0 | 0.00 | 0.00 | 0.00 | 69 | 1010.0 |
| 20260506151517 | 9 | 142 | 8.0 | 0.0 | 0.00 | 0.00 | 0.00 | 70 | 1009.9 |
| 20260506150014 | 9 | 178 | 6.4 | 0.0 | 0.00 | 0.00 | 0.00 | 70 | 1010.0 |
| 20260506144513 | 8 | 188 | 8.0 | 0.0 | 0.00 | 0.00 | 0.00 | 72 | 1010.2 |
| 20260506143012 | 8 | 146 | 8.0 | 0.0 | 0.00 | 0.00 | 0.00 | 74 | 1010.1 |
| 20260506141509 | 8 | 236 | 9.7 | 0.0 | 0.00 | 0.00 | 0.00 | 72 | 1010.0 |
| 20260506140007 | 8 | 213 | 8.0 | 0.0 | 0.00 | 0.00 | 0.00 | 74 | 1009.9 |
| 20260506134504 | 8 | 189 | 8.0 | 0.0 | 0.00 | 0.00 | 0.00 | 73 | 1009.8 |
| 20260506133004 | 8 | 182 | 8.0 | 0.0 | 0.00 | 0.00 | 0.00 | 72 | 1009.8 |
| 20260506131605 | 8 | 186 | 8.0 | 0.0 | 0.00 | 0.00 | 0.00 | 73 | 1009.7 |
| 20260506130058 | 8 | 218 | 9.7 | 0.0 | 0.00 | 0.00 | 0.00 | 77 | 1009.7 |
| 20260506124559 | 8 | 164 | 6.4 | 0.0 | 0.00 | 0.00 | 0.00 | 76 | 1010.0 |
| 20260506123052 | 8 | 201 | 6.4 | 0.0 | 0.00 | 0.00 | 0.00 | 75 | 1009.8 |
| 20260506121550 | 8 | 194 | 8.0 | 0.0 | 0.00 | 0.00 | 0.00 | 74 | 1009.9 |
| 20260506120050 | 8 | 231 | 4.8 | 0.0 | 0.00 | 0.00 | 0.00 | 75 | 1009.7 |
| 20260506114546 | 8 | 192 | 3.2 | 0.0 | 0.00 | 0.00 | 0.00 | 75 | 1009.9 |
| 20260506113045 | 8 | 184 | 3.2 | 0.0 | 0.00 | 0.00 | 0.00 | 75 | 1009.8 |
| 20260506111542 | 8 | 207 | 0.0 | 0.0 | 0.00 | 0.00 | 0.00 | 74 | 1009.7 |
| 20260506110040 | 8 | 207 | 1.6 | 0.0 | 0.00 | 0.00 | 0.00 | 72 | 1009.6 |
| 20260506104541 | 8 | 207 | 3.2 | 0.0 | 0.00 | 0.00 | 0.00 | 71 | 1009.4 |
| 20260506103040 | 8 | 192 | 3.2 | 0.0 | 0.00 | 0.00 | 0.00 | 71 | 1009.5 |
| 20260506101536 | 8 | 212 | 3.2 | 0.0 | 0.00 | 0.00 | 0.00 | 70 | 1009.7 |
| 20260506100038 | 8 | 253 | 3.2 | 0.0 | 0.00 | 0.00 | 0.00 | 68 | 1009.8 |
| 20260506094545 | 8 | 229 | 3.2 | 0.0 | 0.00 | 0.00 | 0.00 | 67 | 1009.7 |
| 20260506093037 | 8 | 202 | 3.2 | 0.0 | 0.00 | 0.00 | 0.00 | 66 | 1009.4 |
| 20260506091532 | 8 | 185 | 4.8 | 0.0 | 0.00 | 0.00 | 0.00 | 65 | 1009.3 |
| 20260506090028 | 8 | 199 | 4.8 | 0.0 | 0.00 | 0.00 | 0.00 | 63 | 1009.3 |
| 20260506084525 | 8 | 175 | 1.6 | 0.0 | 0.00 | 0.00 | 0.00 | 61 | 1009.5 |
| 20260506083023 | 8 | 256 | 1.6 | 0.0 | 0.00 | 0.00 | 0.00 | 61 | 1009.6 |
| 20260506081528 | 8 | 261 | 3.2 | 0.0 | 0.00 | 0.00 | 0.00 | 60 | 1009.4 |
| 20260506073019 | 8 | 238 | 3.2 | 0.0 | 0.00 | 0.00 | 0.00 | 61 | 1009.4 |
| 20260506071518 | 9 | 226 | 3.2 | 0.0 | 0.00 | 0.00 | 0.00 | 61 | 1009.6 |
| 20260506061514 | 9 | 252 | 3.2 | 0.0 | 0.00 | 0.00 | 0.00 | 56 | 1009.3 |
| 20260506044501 | 10 | 264 | 4.8 | 0.0 | 0.00 | 0.00 | 0.00 | 53 | 1008.9 |
| 20260506043059 | 10 | 240 | 4.8 | 0.0 | 0.00 | 0.00 | 0.00 | 54 | 1009.0 |
| 20260506041557 | 10 | 266 | 4.8 | 0.0 | 0.00 | 0.00 | 0.00 | 54 | 1008.9 |
| 20260506040055 | 10 | 238 | 4.8 | 0.0 | 0.00 | 0.00 | 0.00 | 53 | 1008.8 |
| 20260506034553 | 10 | 236 | 4.8 | 0.0 | 0.00 | 0.00 | 0.20 | 52 | 1008.8 |
| 20260506033051 | 11 | 297 | 6.4 | 0.0 | 0.00 | 0.00 | 0.20 | 51 | 1008.8 |
| 20260506031551 | 11 | 242 | 3.2 | 0.0 | 0.00 | 0.00 | 0.20 | 50 | 1008.7 |